When you browse on this site, cookies collect data to enhance your experience and personalize the content and advertising you see.
Visit our Privacy Policy to learn more. By continuing to use the site, you agree to this use of cookies and data.

Hourly Weather Krasivyy

Today, 13 August, Thursday

Time Temperature Precipitation Wind Pressure Humidity
00:00 +10°C° 0 mm 2 mps 746 mmHg 83%
01:00 +9°C° 0 mm 2 mps 746 mmHg 86%
02:00 +8°C° 0 mm 2 mps 746 mmHg 89%
03:00 +8°C° 0 mm 2 mps 746 mmHg 87%
04:00 +8°C° 0 mm 2 mps 746 mmHg 85%
05:00 +8°C° 0 mm 2 mps 746 mmHg 84%
06:00 +10°C° 0 mm 3 mps 746 mmHg 78%
07:00 +11°C° 0 mm 3 mps 746 mmHg 72%
08:00 +12°C° 0 mm 3 mps 746 mmHg 66%
09:00 +14°C° 0 mm 3 mps 746 mmHg 60%
10:00 +16°C° 0 mm 3 mps 746 mmHg 54%
11:00 +17°C° 0 mm 3 mps 746 mmHg 48%
12:00 +17°C° 0 mm 3 mps 746 mmHg 51%
13:00 +17°C° 0 mm 3 mps 746 mmHg 53%
14:00 +17°C° 0 mm 3 mps 746 mmHg 56%
15:00 +17°C° 0.1 mm 3 mps 746 mmHg 60%
16:00 +16°C° 0.1 mm 3 mps 746 mmHg 64%
17:00 +16°C° 0.1 mm 2 mps 746 mmHg 68%
18:00 +14°C° 0 mm 2 mps 746 mmHg 74%
19:00 +13°C° 0 mm 2 mps 746 mmHg 80%
20:00 +10°C° 0 mm 2 mps 746 mmHg 86%
21:00 +9°C° 0 mm 2 mps 746 mmHg 88%
22:00 +9°C° 0 mm 2 mps 746 mmHg 90%
23:00 +8°C° 0 mm 2 mps 746 mmHg 92%

Tomorrow, 14 August, Friday

Time Temperature Precipitation Wind Pressure Humidity
00:00 +8°C° 0 mm 2 mps 747 mmHg 94%
01:00 +7°C° 0 mm 2 mps 747 mmHg 95%
02:00 +7°C° 0 mm 2 mps 747 mmHg 96%
03:00 +7°C° 0 mm 2 mps 747 mmHg 96%
04:00 +7°C° 0 mm 2 mps 747 mmHg 96%
05:00 +7°C° 0 mm 2 mps 747 mmHg 96%
06:00 +9°C° 0 mm 2 mps 747 mmHg 87%
07:00 +12°C° 0 mm 2 mps 747 mmHg 77%
08:00 +14°C° 0 mm 2 mps 747 mmHg 68%
09:00 +15°C° 0 mm 2 mps 747 mmHg 62%
10:00 +17°C° 0 mm 2 mps 747 mmHg 55%
11:00 +18°C° 0 mm 2 mps 747 mmHg 48%
12:00 +18°C° 0 mm 2 mps 747 mmHg 47%
13:00 +19°C° 0 mm 2 mps 747 mmHg 46%
14:00 +20°C° 0 mm 2 mps 747 mmHg 45%
15:00 +19°C° 0 mm 2 mps 747 mmHg 50%
16:00 +19°C° 0 mm 2 mps 747 mmHg 54%
17:00 +18°C° 0 mm 2 mps 747 mmHg 59%
18:00 +17°C° 0 mm 2 mps 747 mmHg 65%
19:00 +15°C° 0 mm 2 mps 747 mmHg 72%
20:00 +13°C° 0 mm 1 mps 747 mmHg 79%
21:00 +12°C° 0 mm 1 mps 747 mmHg 82%
22:00 +12°C° 0 mm 1 mps 747 mmHg 85%
23:00 +11°C° 0 mm 1 mps 748 mmHg 88%

Day after tomorrow, 15 August, Saturday

Time Temperature Precipitation Wind Pressure Humidity
00:00 +11°C° 0 mm 1 mps 748 mmHg 90%
01:00 +11°C° 0 mm 1 mps 748 mmHg 91%
02:00 +10°C° 0 mm 1 mps 748 mmHg 92%
03:00 +10°C° 0 mm 1 mps 748 mmHg 91%
04:00 +11°C° 0 mm 1 mps 748 mmHg 90%
05:00 +11°C° 0 mm 1 mps 748 mmHg 89%
06:00 +13°C° 0 mm 1 mps 748 mmHg 81%
07:00 +14°C° 0 mm 1 mps 748 mmHg 74%
08:00 +16°C° 0 mm 1 mps 748 mmHg 66%
09:00 +19°C° 0 mm 1 mps 748 mmHg 60%
10:00 +20°C° 0 mm 1 mps 748 mmHg 55%
11:00 +21°C° 0 mm 1 mps 747 mmHg 49%
12:00 +22°C° 0 mm 1 mps 747 mmHg 48%
13:00 +21°C° 0 mm 2 mps 747 mmHg 47%
14:00 +23°C° 0 mm 2 mps 747 mmHg 46%
15:00 +21°C° 0 mm 2 mps 747 mmHg 51%
16:00 +22°C° 0 mm 1 mps 746 mmHg 56%
17:00 +22°C° 0 mm 1 mps 746 mmHg 60%
18:00 +20°C° 0 mm 1 mps 746 mmHg 66%
19:00 +18°C° 0 mm 1 mps 746 mmHg 71%
20:00 +14°C° 0 mm 1 mps 746 mmHg 77%
21:00 +14°C° 0 mm 1 mps 746 mmHg 79%
22:00 +13°C° 0 mm 1 mps 746 mmHg 82%
23:00 +13°C° 0 mm 1 mps 746 mmHg 84%

16 August, Sunday

Time Temperature Precipitation Wind Pressure Humidity
00:00 +13°C° 0 mm 1 mps 745 mmHg 88%
01:00 +12°C° 0 mm 1 mps 745 mmHg 91%
02:00 +12°C° 0 mm 1 mps 745 mmHg 95%
03:00 +12°C° 0 mm 1 mps 745 mmHg 96%
04:00 +12°C° 0 mm 1 mps 745 mmHg 97%
05:00 +12°C° 0 mm 2 mps 744 mmHg 98%
06:00 +14°C° 0 mm 2 mps 744 mmHg 91%
07:00 +16°C° 0 mm 2 mps 744 mmHg 85%
08:00 +18°C° 0 mm 2 mps 744 mmHg 79%
09:00 +20°C° 0 mm 2 mps 744 mmHg 74%
10:00 +21°C° 0 mm 3 mps 744 mmHg 69%
11:00 +24°C° 0 mm 3 mps 744 mmHg 65%
12:00 +23°C° 0.1 mm 4 mps 743 mmHg 60%
13:00 +25°C° 0.1 mm 4 mps 743 mmHg 55%
14:00 +25°C° 0.1 mm 5 mps 743 mmHg 50%
15:00 +25°C° 0 mm 4 mps 743 mmHg 55%
16:00 +24°C° 0 mm 3 mps 742 mmHg 59%
17:00 +24°C° 0 mm 2 mps 742 mmHg 63%
18:00 +21°C° 0 mm 2 mps 742 mmHg 70%
19:00 +20°C° 0 mm 3 mps 742 mmHg 76%
20:00 +18°C° 0 mm 3 mps 742 mmHg 83%
21:00 +17°C° 0 mm 2 mps 742 mmHg 87%
22:00 +16°C° 0 mm 2 mps 742 mmHg 92%
23:00 +16°C° 0 mm 2 mps 742 mmHg 96%

17 August, Monday

Time Temperature Precipitation Wind Pressure Humidity
00:00 +15°C° 0 mm 2 mps 742 mmHg 97%
01:00 +15°C° 0 mm 2 mps 742 mmHg 97%
02:00 +14°C° 0 mm 2 mps 742 mmHg 97%
03:00 +13°C° 0 mm 2 mps 742 mmHg 96%
04:00 +13°C° 0 mm 2 mps 742 mmHg 94%
05:00 +12°C° 0 mm 2 mps 743 mmHg 93%
06:00 +14°C° 0 mm 2 mps 743 mmHg 83%
07:00 +15°C° 0 mm 2 mps 743 mmHg 72%
08:00 +17°C° 0 mm 2 mps 743 mmHg 62%
09:00 +18°C° 0 mm 2 mps 743 mmHg 57%
10:00 +20°C° 0 mm 3 mps 743 mmHg 51%
11:00 +21°C° 0 mm 3 mps 743 mmHg 46%
12:00 +21°C° 0 mm 3 mps 742 mmHg 44%
13:00 +22°C° 0 mm 3 mps 742 mmHg 43%
14:00 +23°C° 0 mm 4 mps 742 mmHg 42%
15:00 +22°C° 0 mm 3 mps 742 mmHg 46%
16:00 +21°C° 0 mm 3 mps 741 mmHg 50%
17:00 +21°C° 0 mm 3 mps 741 mmHg 54%
18:00 +19°C° 0 mm 2 mps 741 mmHg 59%
19:00 +17°C° 0 mm 2 mps 741 mmHg 63%
20:00 +16°C° 0 mm 2 mps 741 mmHg 68%
21:00 +15°C° 0 mm 2 mps 741 mmHg 70%
22:00 +15°C° 0 mm 2 mps 741 mmHg 72%
23:00 +14°C° 0 mm 2 mps 741 mmHg 74%

18 August, Tuesday

Time Temperature Precipitation Wind Pressure Humidity
00:00 +14°C° 0.2 mm 2 mps 741 mmHg 79%
01:00 +13°C° 0.2 mm 2 mps 740 mmHg 84%
02:00 +13°C° 0.2 mm 2 mps 740 mmHg 89%
03:00 +13°C° 0.8 mm 2 mps 740 mmHg 91%
04:00 +13°C° 0.8 mm 1 mps 740 mmHg 93%
05:00 +13°C° 0.8 mm 1 mps 739 mmHg 96%
06:00 +14°C° 0.8 mm 1 mps 739 mmHg 95%
07:00 +14°C° 0.8 mm 1 mps 739 mmHg 94%
08:00 +15°C° 0.8 mm 1 mps 739 mmHg 93%
09:00 +16°C° 0.1 mm 2 mps 739 mmHg 83%
10:00 +18°C° 0.1 mm 2 mps 739 mmHg 73%
11:00 +19°C° 0.1 mm 3 mps 739 mmHg 63%
12:00 +20°C° 0 mm 3 mps 739 mmHg 58%
13:00 +20°C° 0 mm 4 mps 739 mmHg 52%
14:00 +21°C° 0 mm 4 mps 739 mmHg 47%
15:00 +20°C° 0 mm 3 mps 739 mmHg 49%
16:00 +19°C° 0 mm 3 mps 739 mmHg 52%
17:00 +18°C° 0 mm 2 mps 739 mmHg 55%
18:00 +16°C° 0 mm 2 mps 739 mmHg 60%
19:00 +14°C° 0 mm 2 mps 739 mmHg 65%
20:00 +12°C° 0 mm 1 mps 739 mmHg 70%
21:00 +11°C° 0 mm 1 mps 739 mmHg 72%
22:00 +10°C° 0 mm 1 mps 739 mmHg 74%
23:00 +9°C° 0 mm 1 mps 739 mmHg 76%
Show more